Data supplied by UK-AIR on 24/3/2023
All Data GMT hour ending 
Status: R =Ratified P=Provisional,P*=As supplied
,,Grangemouth Moray,,,,,,,,,,,,,,,,,,,,,,,
Date,time,"Nitric oxide",status,unit,"Nitrogen dioxide",status,unit,"Nitrogen oxides as nitrogen dioxide",status,unit
 
01-01-2022,01:00,1.17412,R,ugm-3,2.56586,R,ugm-3,4.36614,R,ugm-3
01-01-2022,02:00,0.30440,R,ugm-3,5.12738,R,ugm-3,5.59412,R,ugm-3
01-01-2022,03:00,0.29353,R,ugm-3,5.84332,R,ugm-3,6.29339,R,ugm-3
01-01-2022,04:00,0.55444,R,ugm-3,2.32214,R,ugm-3,3.17228,R,ugm-3
01-01-2022,05:00,1.04366,R,ugm-3,3.10700,R,ugm-3,4.70725,R,ugm-3
01-01-2022,06:00,0.61967,R,ugm-3,2.63145,R,ugm-3,3.58160,R,ugm-3
01-01-2022,07:00,0.68490,R,ugm-3,2.27561,R,ugm-3,3.32577,R,ugm-3
01-01-2022,08:00,0.32614,R,ugm-3,2.21171,R,ugm-3,2.71178,R,ugm-3
01-01-2022,09:00,0.52183,R,ugm-3,1.65583,R,ugm-3,2.45596,R,ugm-3
01-01-2022,10:00,0.39137,R,ugm-3,1.54887,R,ugm-3,2.14896,R,ugm-3
01-01-2022,11:00,0.65229,R,ugm-3,1.81396,R,ugm-3,2.81412,R,ugm-3
01-01-2022,12:00,0.61967,R,ugm-3,1.45464,R,ugm-3,2.40479,R,ugm-3
01-01-2022,13:00,0.84797,R,ugm-3,1.76974,R,ugm-3,3.06995,R,ugm-3
01-01-2022,14:00,0.61967,R,ugm-3,1.65930,R,ugm-3,2.60945,R,ugm-3
01-01-2022,15:00,0.78274,R,ugm-3,2.12558,R,ugm-3,3.32577,R,ugm-3
01-01-2022,16:00,0.55444,R,ugm-3,2.11748,R,ugm-3,2.96761,R,ugm-3
01-01-2022,17:00,0.65229,R,ugm-3,2.12095,R,ugm-3,3.12111,R,ugm-3
01-01-2022,18:00,0.81536,R,ugm-3,2.02441,R,ugm-3,3.27461,R,ugm-3
01-01-2022,19:00,0.58706,R,ugm-3,2.16980,R,ugm-3,3.06995,R,ugm-3
01-01-2022,20:00,1.20673,R,ugm-3,3.11279,R,ugm-3,4.96308,R,ugm-3
01-01-2022,21:00,0.35876,R,ugm-3,2.87802,R,ugm-3,3.42811,R,ugm-3
01-01-2022,22:00,1.17412,R,ugm-3,3.41862,R,ugm-3,5.21891,R,ugm-3
01-01-2022,23:00,0.42399,R,ugm-3,2.62451,R,ugm-3,3.27461,R,ugm-3
01-01-2022,24:00,0.84797,R,ugm-3,3.04888,R,ugm-3,4.34909,R,ugm-3
02-01-2022,01:00,0.43477,R,ugm-3,2.40226,R,ugm-3,3.06890,R,ugm-3
02-01-2022,02:00,1.08692,R,ugm-3,1.87969,R,ugm-3,3.54628,R,ugm-3
02-01-2022,03:00,0.32608,R,ugm-3,1.39251,R,ugm-3,1.89249,R,ugm-3
02-01-2022,04:00,0.42390,R,ugm-3,1.65170,R,ugm-3,2.30167,R,ugm-3
02-01-2022,05:00,0.35869,R,ugm-3,4.36026,R,ugm-3,4.91023,R,ugm-3
02-01-2022,06:00,0.52172,R,ugm-3,7.38376,R,ugm-3,8.18372,R,ugm-3
02-01-2022,07:00,0.71737,R,ugm-3,4.27061,R,ugm-3,5.37057,R,ugm-3
02-01-2022,08:00,0.29347,R,ugm-3,3.13040,R,ugm-3,3.58038,R,ugm-3
02-01-2022,09:00,1.10866,R,ugm-3,2.59653,R,ugm-3,4.29645,R,ugm-3
02-01-2022,10:00,0.55433,R,ugm-3,2.21893,R,ugm-3,3.06890,R,ugm-3
02-01-2022,11:00,1.04345,R,ugm-3,2.64538,R,ugm-3,4.24530,R,ugm-3
02-01-2022,12:00,0.88041,R,ugm-3,2.38388,R,ugm-3,3.73382,R,ugm-3
02-01-2022,13:00,0.84780,R,ugm-3,2.17814,R,ugm-3,3.47808,R,ugm-3
02-01-2022,14:00,1.33692,R,ugm-3,3.21836,R,ugm-3,5.26827,R,ugm-3
02-01-2022,15:00,0.55433,R,ugm-3,2.67927,R,ugm-3,3.52923,R,ugm-3
02-01-2022,16:00,1.07605,R,ugm-3,3.56720,R,ugm-3,5.21712,R,ugm-3
02-01-2022,17:00,0.48912,R,ugm-3,3.08615,R,ugm-3,3.83612,R,ugm-3
02-01-2022,18:00,1.07605,R,ugm-3,3.51605,R,ugm-3,5.16597,R,ugm-3
02-01-2022,19:00,0.71737,R,ugm-3,3.45224,R,ugm-3,4.55219,R,ugm-3
02-01-2022,20:00,0.68476,R,ugm-3,3.09306,R,ugm-3,4.14301,R,ugm-3
02-01-2022,21:00,0.84780,R,ugm-3,3.55914,R,ugm-3,4.85908,R,ugm-3
02-01-2022,22:00,0.45651,R,ugm-3,2.06204,R,ugm-3,2.76201,R,ugm-3
02-01-2022,23:00,0.81519,R,ugm-3,1.71665,R,ugm-3,2.96660,R,ugm-3
02-01-2022,24:00,0.32608,R,ugm-3,1.49480,R,ugm-3,1.99478,R,ugm-3
03-01-2022,01:00,0.86936,R,ugm-3,2.00754,R,ugm-3,3.34054,R,ugm-3
03-01-2022,02:00,0.30428,R,ugm-3,1.03329,R,ugm-3,1.49984,R,ugm-3
03-01-2022,03:00,0.81503,R,ugm-3,1.05119,R,ugm-3,2.30089,R,ugm-3
03-01-2022,04:00,0.39121,R,ugm-3,0.78068,R,ugm-3,1.38053,R,ugm-3
03-01-2022,05:00,0.58682,R,ugm-3,1.04319,R,ugm-3,1.94297,R,ugm-3
03-01-2022,06:00,0.42381,R,ugm-3,0.98635,R,ugm-3,1.63618,R,ugm-3
03-01-2022,07:00,0.52162,R,ugm-3,1.29656,R,ugm-3,2.09636,R,ugm-3
03-01-2022,08:00,0.55422,R,ugm-3,1.65562,R,ugm-3,2.50541,R,ugm-3
03-01-2022,09:00,0.71722,R,ugm-3,2.22377,R,ugm-3,3.32350,R,ugm-3
03-01-2022,10:00,0.48902,R,ugm-3,3.39178,R,ugm-3,4.14159,R,ugm-3
03-01-2022,11:00,0.55422,R,ugm-3,7.22887,R,ugm-3,8.07866,R,ugm-3
03-01-2022,12:00,1.56485,R,ugm-3,15.95654,R,ugm-3,18.35594,R,ugm-3
03-01-2022,13:00,0.74982,R,ugm-3,5.24163,R,ugm-3,6.39134,R,ugm-3
03-01-2022,14:00,0.97803,R,ugm-3,7.60165,R,ugm-3,9.10127,R,ugm-3
03-01-2022,15:00,0.68462,R,ugm-3,5.18821,R,ugm-3,6.23795,R,ugm-3
03-01-2022,16:00,0.65202,R,ugm-3,5.69838,R,ugm-3,6.69813,R,ugm-3
03-01-2022,17:00,1.17364,R,ugm-3,10.88087,R,ugm-3,12.68043,R,ugm-3
03-01-2022,18:00,1.14104,R,ugm-3,16.50411,R,ugm-3,18.25368,R,ugm-3
03-01-2022,19:00,0.88023,R,ugm-3,28.56183,R,ugm-3,29.91149,R,ugm-3
03-01-2022,20:00,1.95606,R,ugm-3,43.32521,R,ugm-3,46.32446,R,ugm-3
03-01-2022,21:00,1.98866,R,ugm-3,44.14444,R,ugm-3,47.19369,R,ugm-3
03-01-2022,22:00,0.48902,R,ugm-3,20.11153,R,ugm-3,20.86135,R,ugm-3
03-01-2022,23:00,0.58682,R,ugm-3,23.43846,R,ugm-3,24.33824,R,ugm-3
03-01-2022,24:00,0.68462,R,ugm-3,28.29931,R,ugm-3,29.34905,R,ugm-3
04-01-2022,01:00,0.56497,R,ugm-3,26.05338,R,ugm-3,26.91965,R,ugm-3
04-01-2022,02:00,0.52151,R,ugm-3,19.78197,R,ugm-3,20.58161,R,ugm-3
04-01-2022,03:00,0.48892,R,ugm-3,14.02207,R,ugm-3,14.77173,R,ugm-3
04-01-2022,04:00,0.48892,R,ugm-3,14.32875,R,ugm-3,15.07841,R,ugm-3
04-01-2022,05:00,0.42373,R,ugm-3,12.53751,R,ugm-3,13.18722,R,ugm-3
04-01-2022,06:00,0.29335,R,ugm-3,5.12155,R,ugm-3,5.57135,R,ugm-3
04-01-2022,07:00,0.52151,R,ugm-3,8.60520,R,ugm-3,9.40484,R,ugm-3
04-01-2022,08:00,0.52151,R,ugm-3,8.86077,R,ugm-3,9.66041,R,ugm-3
04-01-2022,09:00,0.61929,R,ugm-3,11.01093,R,ugm-3,11.96050,R,ugm-3
04-01-2022,10:00,0.97783,R,ugm-3,10.10339,R,ugm-3,11.60271,R,ugm-3
04-01-2022,11:00,1.01043,R,ugm-3,8.92892,R,ugm-3,10.47822,R,ugm-3
04-01-2022,12:00,2.31420,R,ugm-3,12.50117,R,ugm-3,16.04956,R,ugm-3
04-01-2022,13:00,2.08604,R,ugm-3,11.31761,R,ugm-3,14.51617,R,ugm-3
04-01-2022,14:00,1.27118,R,ugm-3,7.09793,R,ugm-3,9.04705,R,ugm-3
04-01-2022,15:00,0.88005,R,ugm-3,7.44209,R,ugm-3,8.79148,R,ugm-3
04-01-2022,16:00,0.52151,R,ugm-3,7.17403,R,ugm-3,7.97367,R,ugm-3
04-01-2022,17:00,0.58670,R,ugm-3,10.90757,R,ugm-3,11.80716,R,ugm-3
04-01-2022,18:00,0.48892,R,ugm-3,10.49526,R,ugm-3,11.24492,R,ugm-3
04-01-2022,19:00,0.48892,R,ugm-3,6.61065,R,ugm-3,7.36031,R,ugm-3
04-01-2022,20:00,0.55411,R,ugm-3,7.53296,R,ugm-3,8.38258,R,ugm-3
04-01-2022,21:00,0.52151,R,ugm-3,7.63405,R,ugm-3,8.43369,R,ugm-3
04-01-2022,22:00,0.32594,R,ugm-3,6.09384,R,ugm-3,6.59361,R,ugm-3
04-01-2022,23:00,0.65189,R,ugm-3,4.52068,R,ugm-3,5.52023,R,ugm-3
04-01-2022,24:00,1.14081,R,ugm-3,3.10655,R,ugm-3,4.85576,R,ugm-3
05-01-2022,01:00,0.43450,R,ugm-3,1.65011,R,ugm-3,2.31634,R,ugm-3
05-01-2022,02:00,0.52141,R,ugm-3,1.85750,R,ugm-3,2.65698,R,ugm-3
05-01-2022,03:00,0.97763,R,ugm-3,4.01933,R,ugm-3,5.51834,R,ugm-3
05-01-2022,04:00,0.81470,R,ugm-3,2.53191,R,ugm-3,3.78109,R,ugm-3
05-01-2022,05:00,0.74952,R,ugm-3,4.42019,R,ugm-3,5.56944,R,ugm-3
05-01-2022,06:00,1.04281,R,ugm-3,7.80267,R,ugm-3,9.40162,R,ugm-3
05-01-2022,07:00,0.97763,R,ugm-3,11.37712,R,ugm-3,12.87613,R,ugm-3
05-01-2022,08:00,0.65176,R,ugm-3,11.51912,R,ugm-3,12.51846,R,ugm-3
05-01-2022,09:00,1.85751,R,ugm-3,21.78003,R,ugm-3,24.62816,R,ugm-3
05-01-2022,10:00,1.62939,R,ugm-3,21.26117,R,ugm-3,23.75953,R,ugm-3
05-01-2022,11:00,1.79233,R,ugm-3,15.64628,R,ugm-3,18.39448,R,ugm-3
05-01-2022,12:00,1.89009,R,ugm-3,10.38680,R,ugm-3,13.28490,R,ugm-3
05-01-2022,13:00,2.02044,R,ugm-3,11.05556,R,ugm-3,14.15353,R,ugm-3
05-01-2022,14:00,1.66198,R,ugm-3,14.82423,R,ugm-3,17.37256,R,ugm-3
05-01-2022,15:00,1.53163,R,ugm-3,20.28696,R,ugm-3,22.63543,R,ugm-3
05-01-2022,16:00,5.99616,R,ugm-3,37.35427,R,ugm-3,46.54825,R,ugm-3
05-01-2022,17:00,1.46645,R,ugm-3,36.99303,R,ugm-3,39.24155,R,ugm-3
05-01-2022,18:00,4.17124,R,ugm-3,59.05787,R,ugm-3,65.45368,R,ugm-3
05-01-2022,19:00,7.72331,R,ugm-3,53.25377,R,ugm-3,65.09601,R,ugm-3
05-01-2022,20:00,29.49197,R,ugm-3,69.02976,R,ugm-3,114.25015,R,ugm-3
05-01-2022,21:00,14.27346,R,ugm-3,60.68510,R,ugm-3,82.57077,R,ugm-3
05-01-2022,22:00,5.01852,R,ugm-3,49.58340,R,ugm-3,57.27836,R,ugm-3
05-01-2022,23:00,9.54823,R,ugm-3,52.60162,R,ugm-3,67.24204,R,ugm-3
05-01-2022,24:00,14.33864,R,ugm-3,52.35875,R,ugm-3,74.34435,R,ugm-3
06-01-2022,01:00,9.20962,R,ugm-3,40.56660,R,ugm-3,54.68781,R,ugm-3
06-01-2022,02:00,0.39098,R,ugm-3,15.54125,R,ugm-3,16.14074,R,ugm-3
06-01-2022,03:00,6.80947,R,ugm-3,43.19116,R,ugm-3,53.63220,R,ugm-3
06-01-2022,04:00,1.40099,R,ugm-3,27.63048,R,ugm-3,29.77864,R,ugm-3
06-01-2022,05:00,0.42356,R,ugm-3,3.89652,R,ugm-3,4.54597,R,ugm-3
06-01-2022,06:00,0.52130,R,ugm-3,5.12577,R,ugm-3,5.92508,R,ugm-3
06-01-2022,07:00,1.69422,R,ugm-3,11.49984,R,ugm-3,14.09761,R,ugm-3
06-01-2022,08:00,1.33583,R,ugm-3,11.38535,R,ugm-3,13.43359,R,ugm-3
06-01-2022,09:00,2.34585,R,ugm-3,11.42010,R,ugm-3,15.01702,R,ugm-3
06-01-2022,10:00,1.53132,R,ugm-3,6.23317,R,ugm-3,8.58115,R,ugm-3
06-01-2022,11:00,1.69422,R,ugm-3,6.90279,R,ugm-3,9.50056,R,ugm-3
06-01-2022,12:00,1.01002,R,ugm-3,5.80660,R,ugm-3,7.35527,R,ugm-3
06-01-2022,13:00,0.84711,R,ugm-3,4.21757,R,ugm-3,5.51646,R,ugm-3
06-01-2022,14:00,2.57391,R,ugm-3,6.42228,R,ugm-3,10.36889,R,ugm-3
06-01-2022,15:00,,,,,,,,,
06-01-2022,16:00,5.08267,R,ugm-3,15.14084,R,ugm-3,22.93415,R,ugm-3
06-01-2022,17:00,2.37843,R,ugm-3,7.79467,R,ugm-3,11.44154,R,ugm-3
06-01-2022,18:00,1.66164,R,ugm-3,5.93118,R,ugm-3,8.47899,R,ugm-3
06-01-2022,19:00,0.65162,R,ugm-3,6.81583,R,ugm-3,7.81498,R,ugm-3
06-01-2022,20:00,0.84711,R,ugm-3,7.02688,R,ugm-3,8.32576,R,ugm-3
06-01-2022,21:00,0.55388,R,ugm-3,6.19953,R,ugm-3,7.04880,R,ugm-3
06-01-2022,22:00,1.17292,R,ugm-3,5.55682,R,ugm-3,7.35527,R,ugm-3
06-01-2022,23:00,1.14034,R,ugm-3,5.96432,R,ugm-3,7.71282,R,ugm-3
06-01-2022,24:00,0.97744,R,ugm-3,3.20049,R,ugm-3,4.69920,R,ugm-3
07-01-2022,01:00,1.17362,R,ugm-3,2.83431,R,ugm-3,4.63383,R,ugm-3
07-01-2022,02:00,0.82588,R,ugm-3,1.05059,R,ugm-3,2.31692,R,ugm-3
07-01-2022,03:00,0.91281,R,ugm-3,2.22907,R,ugm-3,3.62870,R,ugm-3
07-01-2022,04:00,0.94542,R,ugm-3,2.89460,R,ugm-3,4.34422,R,ugm-3
07-01-2022,05:00,1.01062,R,ugm-3,2.23244,R,ugm-3,3.78202,R,ugm-3
07-01-2022,06:00,0.58681,R,ugm-3,3.34224,R,ugm-3,4.24200,R,ugm-3
07-01-2022,07:00,0.71721,R,ugm-3,4.52222,R,ugm-3,5.62193,R,ugm-3
07-01-2022,08:00,0.78241,R,ugm-3,4.78001,R,ugm-3,5.97969,R,ugm-3
07-01-2022,09:00,0.91281,R,ugm-3,11.73524,R,ugm-3,13.13487,R,ugm-3
07-01-2022,10:00,0.97802,R,ugm-3,12.24857,R,ugm-3,13.74817,R,ugm-3
07-01-2022,11:00,1.49962,R,ugm-3,15.74189,R,ugm-3,18.04128,R,ugm-3
07-01-2022,12:00,2.37984,R,ugm-3,19.14533,R,ugm-3,22.79437,R,ugm-3
07-01-2022,13:00,1.85823,R,ugm-3,13.60768,R,ugm-3,16.45692,R,ugm-3
07-01-2022,14:00,1.85823,R,ugm-3,12.48329,R,ugm-3,15.33253,R,ugm-3
07-01-2022,15:00,1.79303,R,ugm-3,13.45211,R,ugm-3,16.20138,R,ugm-3
07-01-2022,16:00,4.30327,R,ugm-3,21.00031,R,ugm-3,27.59856,R,ugm-3
07-01-2022,17:00,1.72783,R,ugm-3,20.29839,R,ugm-3,22.94769,R,ugm-3
07-01-2022,18:00,1.53222,R,ugm-3,20.64942,R,ugm-3,22.99880,R,ugm-3
07-01-2022,19:00,1.04322,R,ugm-3,20.01930,R,ugm-3,21.61887,R,ugm-3
07-01-2022,20:00,0.65201,R,ugm-3,16.01938,R,ugm-3,17.01911,R,ugm-3
07-01-2022,21:00,1.46702,R,ugm-3,19.31836,R,ugm-3,21.56776,R,ugm-3
07-01-2022,22:00,1.10842,R,ugm-3,13.88853,R,ugm-3,15.58807,R,ugm-3
07-01-2022,23:00,1.01062,R,ugm-3,17.87162,R,ugm-3,19.42121,R,ugm-3
07-01-2022,24:00,0.74981,R,ugm-3,38.30602,R,ugm-3,39.45572,R,ugm-3
08-01-2022,01:00,0.82637,R,ugm-3,27.98420,R,ugm-3,29.25128,R,ugm-3
08-01-2022,02:00,0.69589,R,ugm-3,14.34275,R,ugm-3,15.40977,R,ugm-3
08-01-2022,03:00,0.97859,R,ugm-3,3.40882,R,ugm-3,4.90931,R,ugm-3
08-01-2022,04:00,0.52192,R,ugm-3,12.54691,R,ugm-3,13.34718,R,ugm-3
08-01-2022,05:00,0.39144,R,ugm-3,9.88322,R,ugm-3,10.48341,R,ugm-3
08-01-2022,06:00,0.42406,R,ugm-3,1.95786,R,ugm-3,2.60807,R,ugm-3
08-01-2022,07:00,0.45668,R,ugm-3,3.59541,R,ugm-3,4.29564,R,ugm-3
08-01-2022,08:00,0.61978,R,ugm-3,11.52751,R,ugm-3,12.47782,R,ugm-3
08-01-2022,09:00,0.71764,R,ugm-3,11.47974,R,ugm-3,12.58010,R,ugm-3
08-01-2022,10:00,0.58716,R,ugm-3,19.19718,R,ugm-3,20.09747,R,ugm-3
08-01-2022,11:00,0.52192,R,ugm-3,10.96162,R,ugm-3,11.76188,R,ugm-3
08-01-2022,12:00,0.88074,R,ugm-3,17.11059,R,ugm-3,18.46104,R,ugm-3
08-01-2022,13:00,1.17431,R,ugm-3,16.86500,R,ugm-3,18.66559,R,ugm-3
08-01-2022,14:00,1.20693,R,ugm-3,13.03073,R,ugm-3,14.88133,R,ugm-3
08-01-2022,15:00,0.65240,R,ugm-3,10.55700,R,ugm-3,11.55732,R,ugm-3
08-01-2022,16:00,0.42406,R,ugm-3,9.42409,R,ugm-3,10.07430,R,ugm-3
08-01-2022,17:00,0.45668,R,ugm-3,16.94259,R,ugm-3,17.64282,R,ugm-3
08-01-2022,18:00,0.42406,R,ugm-3,21.18597,R,ugm-3,21.83618,R,ugm-3
08-01-2022,19:00,0.45668,R,ugm-3,11.67531,R,ugm-3,12.37554,R,ugm-3
08-01-2022,20:00,0.45668,R,ugm-3,10.95937,R,ugm-3,11.65960,R,ugm-3
08-01-2022,21:00,0.19572,R,ugm-3,8.95599,R,ugm-3,9.25609,R,ugm-3
08-01-2022,22:00,0.39144,R,ugm-3,8.50248,R,ugm-3,9.10267,R,ugm-3
08-01-2022,23:00,0.26096,R,ugm-3,10.49239,R,ugm-3,10.89252,R,ugm-3
08-01-2022,24:00,0.35882,R,ugm-3,3.59205,R,ugm-3,4.14223,R,ugm-3
09-01-2022,01:00,0.39167,R,ugm-3,2.81070,R,ugm-3,3.41125,R,ugm-3
09-01-2022,02:00,0.34815,R,ugm-3,3.01388,R,ugm-3,3.54770,R,ugm-3
09-01-2022,03:00,0.29375,R,ugm-3,4.41062,R,ugm-3,4.86103,R,ugm-3
09-01-2022,04:00,0.29375,R,ugm-3,3.84776,R,ugm-3,4.29818,R,ugm-3
09-01-2022,05:00,0.42431,R,ugm-3,3.28940,R,ugm-3,3.94000,R,ugm-3
09-01-2022,06:00,0.45695,R,ugm-3,3.49520,R,ugm-3,4.19584,R,ugm-3
09-01-2022,07:00,0.39167,R,ugm-3,2.72542,R,ugm-3,3.32597,R,ugm-3
09-01-2022,08:00,0.26111,R,ugm-3,3.53963,R,ugm-3,3.94000,R,ugm-3
09-01-2022,09:00,0.32639,R,ugm-3,7.63537,R,ugm-3,8.13583,R,ugm-3
09-01-2022,10:00,1.10973,R,ugm-3,16.56569,R,ugm-3,18.26725,R,ugm-3
09-01-2022,11:00,0.52223,R,ugm-3,6.36289,R,ugm-3,7.16363,R,ugm-3
09-01-2022,12:00,0.65278,R,ugm-3,5.59985,R,ugm-3,6.60077,R,ugm-3
09-01-2022,13:00,0.52223,R,ugm-3,5.59536,R,ugm-3,6.39610,R,ugm-3
09-01-2022,14:00,0.71806,R,ugm-3,5.90911,R,ugm-3,7.01012,R,ugm-3
09-01-2022,15:00,1.01181,R,ugm-3,11.39427,R,ugm-3,12.94570,R,ugm-3
09-01-2022,16:00,0.62014,R,ugm-3,12.55768,R,ugm-3,13.50855,R,ugm-3
09-01-2022,17:00,1.72987,R,ugm-3,34.39375,R,ugm-3,37.04619,R,ugm-3
09-01-2022,18:00,8.19242,R,ugm-3,59.07473,R,ugm-3,71.63627,R,ugm-3
09-01-2022,19:00,22.25988,R,ugm-3,66.97814,R,ugm-3,101.10947,R,ugm-3
09-01-2022,20:00,12.37022,R,ugm-3,57.22287,R,ugm-3,76.19029,R,ugm-3
09-01-2022,21:00,39.03638,R,ugm-3,63.76878,R,ugm-3,123.62373,R,ugm-3
09-01-2022,22:00,37.24123,R,ugm-3,56.95275,R,ugm-3,114.05517,R,ugm-3
09-01-2022,23:00,33.55301,R,ugm-3,51.35081,R,ugm-3,102.79804,R,ugm-3
09-01-2022,24:00,12.14175,R,ugm-3,46.57191,R,ugm-3,65.18900,R,ugm-3
10-01-2022,01:00,3.87547,R,ugm-3,41.91163,R,ugm-3,47.85393,R,ugm-3
10-01-2022,02:00,3.74483,R,ugm-3,35.28541,R,ugm-3,41.02740,R,ugm-3
10-01-2022,03:00,0.75114,R,ugm-3,25.26691,R,ugm-3,26.41864,R,ugm-3
10-01-2022,04:00,0.84912,R,ugm-3,24.39990,R,ugm-3,25.70186,R,ugm-3
10-01-2022,05:00,2.87394,R,ugm-3,31.73979,R,ugm-3,36.14644,R,ugm-3
10-01-2022,06:00,3.75572,R,ugm-3,31.30933,R,ugm-3,37.06802,R,ugm-3
10-01-2022,07:00,22.30570,R,ugm-3,35.01934,R,ugm-3,69.22094,R,ugm-3
10-01-2022,08:00,34.32400,R,ugm-3,39.83585,R,ugm-3,92.46525,R,ugm-3
10-01-2022,09:00,46.44027,R,ugm-3,44.60453,R,ugm-3,115.81196,R,ugm-3
10-01-2022,10:00,53.23323,R,ugm-3,48.88291,R,ugm-3,130.50605,R,ugm-3
10-01-2022,11:00,29.81714,R,ugm-3,47.10467,R,ugm-3,92.82365,R,ugm-3
10-01-2022,12:00,61.49581,R,ugm-3,52.29026,R,ugm-3,146.58251,R,ugm-3
10-01-2022,13:00,6.10713,R,ugm-3,20.58724,R,ugm-3,29.95137,R,ugm-3
10-01-2022,14:00,0.91444,R,ugm-3,7.09691,R,ugm-3,8.49902,R,ugm-3
10-01-2022,15:00,1.24102,R,ugm-3,9.77048,R,ugm-3,11.67336,R,ugm-3
10-01-2022,16:00,3.49445,R,ugm-3,14.60950,R,ugm-3,19.96758,R,ugm-3
10-01-2022,17:00,1.07773,R,ugm-3,10.89124,R,ugm-3,12.54374,R,ugm-3
10-01-2022,18:00,1.07773,R,ugm-3,11.30083,R,ugm-3,12.95333,R,ugm-3
10-01-2022,19:00,0.62051,R,ugm-3,8.21317,R,ugm-3,9.16461,R,ugm-3
10-01-2022,20:00,0.45722,R,ugm-3,6.77399,R,ugm-3,7.47504,R,ugm-3
10-01-2022,21:00,0.35924,R,ugm-3,5.08105,R,ugm-3,5.63188,R,ugm-3
10-01-2022,22:00,0.35924,R,ugm-3,6.92421,R,ugm-3,7.47504,R,ugm-3
10-01-2022,23:00,0.29393,R,ugm-3,7.99714,R,ugm-3,8.44782,R,ugm-3
10-01-2022,24:00,0.32658,R,ugm-3,7.48628,R,ugm-3,7.98703,R,ugm-3
11-01-2022,01:00,0.43570,R,ugm-3,5.61603,R,ugm-3,6.28410,R,ugm-3
11-01-2022,02:00,0.34856,R,ugm-3,7.25237,R,ugm-3,7.78682,R,ugm-3
11-01-2022,03:00,0.45749,R,ugm-3,5.85585,R,ugm-3,6.55732,R,ugm-3
11-01-2022,04:00,0.32678,R,ugm-3,4.57063,R,ugm-3,5.07168,R,ugm-3
11-01-2022,05:00,0.42481,R,ugm-3,3.65188,R,ugm-3,4.30324,R,ugm-3
11-01-2022,06:00,0.35946,R,ugm-3,5.54510,R,ugm-3,6.09626,R,ugm-3
11-01-2022,07:00,0.94765,R,ugm-3,19.96071,R,ugm-3,21.41376,R,ugm-3
11-01-2022,08:00,1.33979,R,ugm-3,28.83683,R,ugm-3,30.89114,R,ugm-3
11-01-2022,09:00,7.09107,R,ugm-3,40.71487,R,ugm-3,51.58769,R,ugm-3
11-01-2022,10:00,2.25476,R,ugm-3,23.07941,R,ugm-3,26.53666,R,ugm-3
11-01-2022,11:00,1.56853,R,ugm-3,16.95955,R,ugm-3,19.36459,R,ugm-3
11-01-2022,12:00,1.96066,R,ugm-3,12.00381,R,ugm-3,15.01012,R,ugm-3
11-01-2022,13:00,1.37247,R,ugm-3,10.24179,R,ugm-3,12.34621,R,ugm-3
11-01-2022,14:00,0.94765,R,ugm-3,8.28048,R,ugm-3,9.73353,R,ugm-3
11-01-2022,15:00,1.17640,R,ugm-3,8.33957,R,ugm-3,10.14336,R,ugm-3
11-01-2022,16:00,3.00635,R,ugm-3,13.47419,R,ugm-3,18.08387,R,ugm-3
11-01-2022,17:00,0.91498,R,ugm-3,12.12153,R,ugm-3,13.52448,R,ugm-3
11-01-2022,18:00,0.81694,R,ugm-3,11.45218,R,ugm-3,12.70481,R,ugm-3
11-01-2022,19:00,0.55552,R,ugm-3,13.69727,R,ugm-3,14.54906,R,ugm-3
11-01-2022,20:00,0.55552,R,ugm-3,9.49649,R,ugm-3,10.34828,R,ugm-3
11-01-2022,21:00,0.45749,R,ugm-3,7.49518,R,ugm-3,8.19665,R,ugm-3
11-01-2022,22:00,0.39213,R,ugm-3,6.00729,R,ugm-3,6.60855,R,ugm-3
11-01-2022,23:00,0.32678,R,ugm-3,4.57063,R,ugm-3,5.07168,R,ugm-3
11-01-2022,24:00,0.29410,R,ugm-3,3.64738,R,ugm-3,4.09833,R,ugm-3
12-01-2022,01:00,0.26158,R,ugm-3,2.81117,R,ugm-3,3.21225,R,ugm-3
12-01-2022,02:00,0.34877,R,ugm-3,2.81417,R,ugm-3,3.34894,R,ugm-3
12-01-2022,03:00,0.45776,R,ugm-3,2.73248,R,ugm-3,3.43437,R,ugm-3
12-01-2022,04:00,0.29427,R,ugm-3,2.67560,R,ugm-3,3.12681,R,ugm-3
12-01-2022,05:00,0.29427,R,ugm-3,3.44449,R,ugm-3,3.89570,R,ugm-3
12-01-2022,06:00,0.26158,R,ugm-3,3.13581,R,ugm-3,3.53689,R,ugm-3
12-01-2022,07:00,0.35967,R,ugm-3,4.93326,R,ugm-3,5.48474,R,ugm-3
12-01-2022,08:00,0.45776,R,ugm-3,6.52567,R,ugm-3,7.22755,R,ugm-3
12-01-2022,09:00,0.62124,R,ugm-3,9.76062,R,ugm-3,10.71318,R,ugm-3
12-01-2022,10:00,0.55585,R,ugm-3,13.09022,R,ugm-3,13.94251,R,ugm-3
12-01-2022,11:00,0.65394,R,ugm-3,12.58100,R,ugm-3,13.58370,R,ugm-3
12-01-2022,12:00,0.52315,R,ugm-3,8.62954,R,ugm-3,9.43170,R,ugm-3
12-01-2022,13:00,0.55585,R,ugm-3,8.42563,R,ugm-3,9.27792,R,ugm-3
12-01-2022,14:00,,,,,,,,,
12-01-2022,15:00,,,,,,,,,
12-01-2022,16:00,,,,,,,,,
12-01-2022,17:00,1.37328,R,ugm-3,12.24693,R,ugm-3,14.35259,R,ugm-3
12-01-2022,18:00,0.68664,R,ugm-3,9.50658,R,ugm-3,10.55940,R,ugm-3
12-01-2022,19:00,0.52315,R,ugm-3,10.57740,R,ugm-3,11.37955,R,ugm-3
12-01-2022,20:00,0.45776,R,ugm-3,9.03737,R,ugm-3,9.73926,R,ugm-3
12-01-2022,21:00,0.75203,R,ugm-3,6.63831,R,ugm-3,7.79141,R,ugm-3
12-01-2022,22:00,0.91552,R,ugm-3,4.84986,R,ugm-3,6.25363,R,ugm-3
12-01-2022,23:00,0.22888,R,ugm-3,4.31365,R,ugm-3,4.66459,R,ugm-3
12-01-2022,24:00,0.52315,R,ugm-3,3.60614,R,ugm-3,4.40830,R,ugm-3
13-01-2022,01:00,0.47956,R,ugm-3,3.09205,R,ugm-3,3.82736,R,ugm-3
13-01-2022,02:00,0.56675,R,ugm-3,3.16339,R,ugm-3,4.03239,R,ugm-3
13-01-2022,03:00,0.55585,R,ugm-3,2.73586,R,ugm-3,3.58815,R,ugm-3
13-01-2022,04:00,0.49046,R,ugm-3,2.83613,R,ugm-3,3.58815,R,ugm-3
13-01-2022,05:00,0.39236,R,ugm-3,2.42268,R,ugm-3,3.02430,R,ugm-3
13-01-2022,06:00,0.52315,R,ugm-3,3.24732,R,ugm-3,4.04948,R,ugm-3
13-01-2022,07:00,0.32697,R,ugm-3,5.85480,R,ugm-3,6.35615,R,ugm-3
13-01-2022,08:00,0.62124,R,ugm-3,7.65899,R,ugm-3,8.61155,R,ugm-3
13-01-2022,09:00,1.07900,R,ugm-3,11.98051,R,ugm-3,13.63496,R,ugm-3
13-01-2022,10:00,0.62124,R,ugm-3,12.63114,R,ugm-3,13.58370,R,ugm-3
13-01-2022,11:00,0.88282,R,ugm-3,13.66532,R,ugm-3,15.01896,R,ugm-3
13-01-2022,12:00,0.98091,R,ugm-3,10.95195,R,ugm-3,12.45600,R,ugm-3
13-01-2022,13:00,0.65394,R,ugm-3,9.55671,R,ugm-3,10.55940,R,ugm-3
13-01-2022,14:00,0.88282,R,ugm-3,8.38562,R,ugm-3,9.73926,R,ugm-3
13-01-2022,15:00,1.20979,R,ugm-3,7.52546,R,ugm-3,9.38044,R,ugm-3
13-01-2022,16:00,1.56946,R,ugm-3,10.25457,R,ugm-3,12.66103,R,ugm-3
13-01-2022,17:00,0.52315,R,ugm-3,11.39754,R,ugm-3,12.19970,R,ugm-3
13-01-2022,18:00,0.42506,R,ugm-3,11.49669,R,ugm-3,12.14844,R,ugm-3
13-01-2022,19:00,0.81743,R,ugm-3,9.10100,R,ugm-3,10.35437,R,ugm-3
13-01-2022,20:00,1.27519,R,ugm-3,7.47644,R,ugm-3,9.43170,R,ugm-3
13-01-2022,21:00,0.94821,R,ugm-3,6.13246,R,ugm-3,7.58637,R,ugm-3
13-01-2022,22:00,0.58855,R,ugm-3,5.45372,R,ugm-3,6.35615,R,ugm-3
13-01-2022,23:00,0.94821,R,ugm-3,5.15854,R,ugm-3,6.61244,R,ugm-3
13-01-2022,24:00,0.68664,R,ugm-3,4.73946,R,ugm-3,5.79230,R,ugm-3
14-01-2022,01:00,0.61035,R,ugm-3,3.50662,R,ugm-3,4.44247,R,ugm-3
14-01-2022,02:00,0.39236,R,ugm-3,3.63581,R,ugm-3,4.23743,R,ugm-3
14-01-2022,03:00,0.52315,R,ugm-3,4.22125,R,ugm-3,5.02341,R,ugm-3
14-01-2022,04:00,0.98091,R,ugm-3,3.46811,R,ugm-3,4.97215,R,ugm-3
14-01-2022,05:00,1.11170,R,ugm-3,4.29275,R,ugm-3,5.99733,R,ugm-3
14-01-2022,06:00,0.98091,R,ugm-3,3.87818,R,ugm-3,5.38222,R,ugm-3
14-01-2022,07:00,0.78473,R,ugm-3,7.20328,R,ugm-3,8.40652,R,ugm-3
14-01-2022,08:00,0.68664,R,ugm-3,14.06865,R,ugm-3,15.12148,R,ugm-3
14-01-2022,09:00,2.22340,R,ugm-3,18.93987,R,ugm-3,22.34903,R,ugm-3
14-01-2022,10:00,1.34058,R,ugm-3,18.55069,R,ugm-3,20.60622,R,ugm-3
14-01-2022,11:00,1.63485,R,ugm-3,19.38096,R,ugm-3,21.88770,R,ugm-3
14-01-2022,12:00,1.79834,R,ugm-3,20.56554,R,ugm-3,23.32296,R,ugm-3
14-01-2022,13:00,1.40597,R,ugm-3,19.06553,R,ugm-3,21.22133,R,ugm-3
14-01-2022,14:00,1.47137,R,ugm-3,13.94186,R,ugm-3,16.19792,R,ugm-3
14-01-2022,15:00,1.76564,R,ugm-3,15.07968,R,ugm-3,17.78696,R,ugm-3
14-01-2022,16:00,3.43319,R,ugm-3,21.64695,R,ugm-3,26.91110,R,ugm-3
14-01-2022,17:00,1.11170,R,ugm-3,15.77482,R,ugm-3,17.47940,R,ugm-3
14-01-2022,18:00,1.76564,R,ugm-3,15.38724,R,ugm-3,18.09451,R,ugm-3
14-01-2022,19:00,1.66755,R,ugm-3,9.38653,R,ugm-3,11.94340,R,ugm-3
14-01-2022,20:00,15.40031,R,ugm-3,10.57644,R,ugm-3,34.18992,R,ugm-3
14-01-2022,21:00,0.49046,R,ugm-3,9.29479,R,ugm-3,10.04681,R,ugm-3
14-01-2022,22:00,1.07900,R,ugm-3,8.90496,R,ugm-3,10.55940,R,ugm-3
14-01-2022,23:00,1.30788,R,ugm-3,8.45149,R,ugm-3,10.45689,R,ugm-3
14-01-2022,24:00,0.81743,R,ugm-3,4.69270,R,ugm-3,5.94607,R,ugm-3
15-01-2022,01:00,1.08990,R,ugm-3,4.13822,R,ugm-3,5.80938,R,ugm-3
15-01-2022,02:00,1.00271,R,ugm-3,3.99853,R,ugm-3,5.53600,R,ugm-3
15-01-2022,03:00,0.49046,R,ugm-3,3.70753,R,ugm-3,4.45955,R,ugm-3
15-01-2022,04:00,0.39236,R,ugm-3,6.01083,R,ugm-3,6.61244,R,ugm-3
15-01-2022,05:00,0.32697,R,ugm-3,7.34132,R,ugm-3,7.84266,R,ugm-3
15-01-2022,06:00,0.39236,R,ugm-3,8.67631,R,ugm-3,9.27792,R,ugm-3
15-01-2022,07:00,1.50406,R,ugm-3,8.61202,R,ugm-3,10.91822,R,ugm-3
15-01-2022,08:00,1.20979,R,ugm-3,6.14146,R,ugm-3,7.99644,R,ugm-3
15-01-2022,09:00,0.81743,R,ugm-3,7.66574,R,ugm-3,8.91911,R,ugm-3
15-01-2022,10:00,0.71934,R,ugm-3,12.32696,R,ugm-3,13.42992,R,ugm-3
15-01-2022,11:00,1.17709,R,ugm-3,16.39218,R,ugm-3,18.19703,R,ugm-3
15-01-2022,12:00,1.04631,R,ugm-3,18.59183,R,ugm-3,20.19614,R,ugm-3
15-01-2022,13:00,2.41958,R,ugm-3,27.55817,R,ugm-3,31.26814,R,ugm-3
15-01-2022,14:00,4.51219,R,ugm-3,30.60317,R,ugm-3,37.52177,R,ugm-3
15-01-2022,15:00,5.75468,R,ugm-3,37.41212,R,ugm-3,46.23584,R,ugm-3
15-01-2022,16:00,5.52580,R,ugm-3,44.42676,R,ugm-3,52.89954,R,ugm-3
15-01-2022,17:00,1.07900,R,ugm-3,23.36006,R,ugm-3,25.01451,R,ugm-3
15-01-2022,18:00,1.50406,R,ugm-3,17.37735,R,ugm-3,19.68355,R,ugm-3
15-01-2022,19:00,1.11170,R,ugm-3,15.36475,R,ugm-3,17.06933,R,ugm-3
15-01-2022,20:00,0.52315,R,ugm-3,16.06214,R,ugm-3,16.86429,R,ugm-3
15-01-2022,21:00,0.94821,R,ugm-3,20.79260,R,ugm-3,22.24651,R,ugm-3
15-01-2022,22:00,0.49046,R,ugm-3,12.57538,R,ugm-3,13.32740,R,ugm-3
15-01-2022,23:00,0.58855,R,ugm-3,13.96276,R,ugm-3,14.86518,R,ugm-3
15-01-2022,24:00,0.45776,R,ugm-3,9.54996,R,ugm-3,10.25185,R,ugm-3
16-01-2022,01:00,0.39236,R,ugm-3,7.39483,R,ugm-3,7.99644,R,ugm-3
16-01-2022,02:00,0.74113,R,ugm-3,6.24494,R,ugm-3,7.38133,R,ugm-3